Location: Asheville, NC
(35.6000°N, 82.5500°W)
Time: 22:00:35
(UTC-04:00)

UKube-1 - Visible Passes

Search period start: 16 July 2018 00:00
Search period end: 26 July 2018 00:00
Orbit: 614 x 620 km, 98.4° (Epoch: 16 July)

Date Brightness Start Highest point End Pass type
(mag) Time Alt. Az. Time Alt. Az. Time Alt. Az.
16 Jul ? 02:57:42 19° E 02:58:31 21° ENE 03:01:43 10° NNE visible
16 Jul ? 04:34:48 28° W 04:34:48 28° W 04:38:05 10° NW visible
17 Jul ? 03:14:19 30° E 03:14:47 30° ENE 03:18:35 10° N visible
17 Jul ? 04:51:25 19° W 04:51:25 19° W 04:53:53 10° NW visible
18 Jul ? 03:30:57 46° E 03:31:05 47° ENE 03:35:14 10° N visible
18 Jul ? 05:08:03 12° W 05:08:03 12° W 05:09:07 10° WNW visible
19 Jul ? 03:47:34 73° NE 03:47:34 73° NE 03:51:44 10° N visible
20 Jul ? 04:04:13 65° WNW 04:04:13 65° WNW 04:08:07 10° NNW visible
21 Jul ? 02:43:43 13° E 02:44:37 14° ENE 02:46:53 10° NE visible
21 Jul ? 04:20:50 41° WNW 04:20:50 41° WNW 04:24:20 10° NNW visible
22 Jul ? 03:00:21 21° ENE 03:00:50 21° ENE 03:04:05 10° NNE visible
22 Jul ? 04:37:29 26° WNW 04:37:29 26° WNW 04:40:24 10° NW visible
23 Jul ? 03:17:00 31° ENE 03:17:07 31° ENE 03:20:56 10° N visible
23 Jul ? 04:54:06 17° WNW 04:54:06 17° WNW 04:56:11 10° NW visible
24 Jul ? 03:33:38 47° ENE 03:33:38 47° ENE 03:37:34 10° N visible
24 Jul ? 05:10:44 11° WNW 05:10:44 11° WNW 05:11:21 10° WNW visible
25 Jul ? 03:50:15 65° NNE 03:50:15 65° NNE 03:54:04 10° N visible
